Lincoln County, Oregon, United States
Lat: 44.65N, Lon: 123.85W
Wx Zone: ORZ004
Local Info
Past Weather Observations for Friday, October 17, 2014

NOTE: This archive is for the closest National Weather Service station to Lincoln County. Information may differ from the station used for current weather conditions.

Click here for Long-term Archive

Time Weather Temperature Dewpoint Humidity Pressure Winds Precip Visibility
23:55
Overcast
59°F / 15°C 57°F / 14°C 94% 29.92 in
(1013 mb)
S 12.7 mph
(S 20 kph)
0.01 in
(0.25 mm)
7SM
23:35
Overcast
59°F / 15°C 59°F / 15°C 100% 29.92 in
(1013 mb)
S 15 mph
(S 24 kph)
0.01 in
(0.25 mm)
10SM
23:15
Overcast
59°F / 15°C 59°F / 15°C 100% 29.92 in
(1013 mb)
S 17.3 mph
(S 28 kph)
0.01 in
(0.25 mm)
7SM
22:55
Overcast
Rain
59°F / 15°C 59°F / 15°C 100% 29.92 in
(1013 mb)
S 17.3 mph
(S 28 kph)
0.07 in
(1.78 mm)
2 1/2SM
22:35
Overcast
Rain
59°F / 15°C 59°F / 15°C 100% 29.92 in
(1013 mb)
S 19.6 mph
(S 32 kph)
0.03 in
(0.76 mm)
3SM
22:15
Overcast
Light Rain
59°F / 15°C 59°F / 15°C 100% 29.92 in
(1013 mb)
S 17.3 mph
(S 28 kph)
0.01 in
(0.25 mm)
3SM
21:55
Overcast
Drizzle
59°F / 15°C 59°F / 15°C 100% 29.92 in
(1013 mb)
SSE 16.1 mph
(SSE 26 kph)
0.04 in
(1.02 mm)
3SM
21:35
Overcast
Drizzle
59°F / 15°C 59°F / 15°C 100% 29.92 in
(1013 mb)
S 13.8 mph
(S 22 kph)
0.03 in
(0.76 mm)
2 1/2SM
21:15
Overcast
Light Rain
59°F / 15°C 59°F / 15°C 100% 29.92 in
(1013 mb)
S 15 mph
(S 24 kph)
0.01 in
(0.25 mm)
2 1/2SM
20:55
Overcast
Light Rain
59°F / 15°C 59°F / 15°C 100% 29.92 in
(1013 mb)
S 15 mph
(S 24 kph)
- 2 1/2SM
20:35
Overcast
Light Rain
59°F / 15°C 59°F / 15°C 100% 29.89 in
(1012 mb)
S 18.4 mph
(S 30 kph)
- 4SM
20:15
Overcast
Fog And Mist
59°F / 15°C 59°F / 15°C 100% 29.89 in
(1012 mb)
S 15 mph
(S 24 kph)
- 5SM
19:55
Overcast
59°F / 15°C 59°F / 15°C 100% 29.89 in
(1012 mb)
S 18.4 mph
(S 30 kph)
0.03 in
(0.76 mm)
7SM
19:35
Overcast
Rain
59°F / 15°C 59°F / 15°C 100% 29.89 in
(1012 mb)
S 17.3 mph
(S 28 kph)
0.02 in
(0.51 mm)
3SM
19:15
Overcast
Light Rain
59°F / 15°C 59°F / 15°C 100% 29.89 in
(1012 mb)
S 16.1 mph
(S 26 kph)
0.01 in
(0.25 mm)
3SM
18:55
Overcast
Drizzle
59°F / 15°C 59°F / 15°C 100% 29.86 in
(1011 mb)
S 20.7 mph
(S 33 kph)
0.07 in
(1.78 mm)
4SM
18:35
Overcast
Rain
59°F / 15°C 59°F / 15°C 100% 29.86 in
(1011 mb)
SSE 18.4 mph
(SSE 30 kph)
0.06 in
(1.52 mm)
2 1/2SM
18:15
Overcast
Rain
59°F / 15°C 57°F / 14°C 94% 29.86 in
(1011 mb)
SSE 18.4 mph
(SSE 30 kph)
0.04 in
(1.02 mm)
2 1/2SM
17:55
Overcast
Light Rain
59°F / 15°C 59°F / 15°C 100% 29.83 in
(1010 mb)
SW 9.2 mph
(SW 15 kph)
0.11 in
(2.79 mm)
2 1/2SM
17:35
Overcast
Drizzle
59°F / 15°C 59°F / 15°C 100% 29.83 in
(1010 mb)
SW 3.5 mph
(SW 6 kph)
0.03 in
(0.76 mm)
1 1/4SM
17:15
Overcast
Drizzle
59°F / 15°C 59°F / 15°C 100% 29.83 in
(1010 mb)
Calm 0.02 in
(0.51 mm)
1 3/4SM
16:55
Overcast
Heavy Rain
59°F / 15°C 59°F / 15°C 100% 29.83 in
(1010 mb)
S 3.5 mph
(S 6 kph)
0.09 in
(2.29 mm)
1 3/4SM
16:35
Overcast
Heavy Rain
59°F / 15°C 57°F / 14°C 94% 29.83 in
(1010 mb)
Calm 0.05 in
(1.27 mm)
2 1/2SM
16:15
Overcast
Heavy Rain
59°F / 15°C 57°F / 14°C 94% 29.83 in
(1010 mb)
Calm 0.02 in
(0.51 mm)
2SM
15:55
Overcast
Drizzle
59°F / 15°C 57°F / 14°C 94% 29.83 in
(1010 mb)
S 3.5 mph
(S 6 kph)
0.04 in
(1.02 mm)
2SM
15:35
Overcast
Drizzle
59°F / 15°C 57°F / 14°C 94% 29.83 in
(1010 mb)
SSE 4.6 mph
(SSE 7 kph)
0.02 in
(0.51 mm)
2 1/2SM
15:15
Overcast
Drizzle
59°F / 15°C 57°F / 14°C 94% 29.83 in
(1010 mb)
S 3.5 mph
(S 6 kph)
0.01 in
(0.25 mm)
2 1/2SM
14:55
Overcast
Drizzle
59°F / 15°C 57°F / 14°C 94% 29.8 in
(1009 mb)
S 4.6 mph
(S 7 kph)
0.01 in
(0.25 mm)
3SM
14:35
Overcast
Drizzle
59°F / 15°C 57°F / 14°C 94% 29.8 in
(1009 mb)
S 4.6 mph
(S 7 kph)
0.01 in
(0.25 mm)
7SM
14:15
Overcast
Heavy Rain
59°F / 15°C 55°F / 13°C 88% 29.8 in
(1009 mb)
SSE 9.2 mph
(SSE 15 kph)
0.01 in
(0.25 mm)
4SM
13:55
Overcast
Drizzle
59°F / 15°C 55°F / 13°C 88% 29.8 in
(1009 mb)
SSE 8.1 mph
(SSE 13 kph)
0.02 in
(0.51 mm)
5SM
13:35
Overcast
Drizzle
59°F / 15°C 55°F / 13°C 88% 29.77 in
(1008 mb)
SSE 10.4 mph
(SSE 17 kph)
0.02 in
(0.51 mm)
5SM
13:15
Overcast
Heavy Rain
59°F / 15°C 55°F / 13°C 88% 29.77 in
(1008 mb)
SSE 8.1 mph
(SSE 13 kph)
0.01 in
(0.25 mm)
7SM
12:55
Overcast
Drizzle
59°F / 15°C 55°F / 13°C 88% 29.77 in
(1008 mb)
SSE 10.4 mph
(SSE 17 kph)
0.02 in
(0.51 mm)
5SM
12:35
Overcast
Rain
59°F / 15°C 55°F / 13°C 88% 29.77 in
(1008 mb)
SSE 8.1 mph
(SSE 13 kph)
0.02 in
(0.51 mm)
5SM
12:15
Overcast
Heavy Rain
59°F / 15°C 55°F / 13°C 88% 29.77 in
(1008 mb)
SSE 8.1 mph
(SSE 13 kph)
0.01 in
(0.25 mm)
5SM
11:55
Overcast
Rain
59°F / 15°C 55°F / 13°C 88% 29.77 in
(1008 mb)
SSE 8.1 mph
(SSE 13 kph)
0.04 in
(1.02 mm)
3SM
11:35
Overcast
Drizzle
59°F / 15°C 55°F / 13°C 88% 29.77 in
(1008 mb)
SSE 4.6 mph
(SSE 7 kph)
0.01 in
(0.25 mm)
5SM
11:15
Overcast
Drizzle
61°F / 16°C 55°F / 13°C 83% 29.77 in
(1008 mb)
SSE 11.5 mph
(SSE 19 kph)
- 5SM
10:55
Overcast
Light Rain
63°F / 17°C 54°F / 12°C 73% 29.77 in
(1008 mb)
S 11.5 mph
(S 19 kph)
- 10SM
10:35
Overcast
Rain
63°F / 17°C 54°F / 12°C 73% 29.77 in
(1008 mb)
S 5.8 mph
(S 9 kph)
- 10SM
10:15
Overcast
Light Rain
63°F / 17°C 52°F / 11°C 68% 29.77 in
(1008 mb)
S 8.1 mph
(S 13 kph)
- 10SM
09:55
Overcast
63°F / 17°C 52°F / 11°C 68% 29.74 in
(1007 mb)
SSE 9.2 mph
(SSE 15 kph)
- 10SM
09:35
Overcast
Light Rain
63°F / 17°C 50°F / 10°C 64% 29.74 in
(1007 mb)
SSE 12.7 mph
(SSE 20 kph)
- 10SM
09:15
Overcast
63°F / 17°C 50°F / 10°C 64% 29.74 in
(1007 mb)
SE 8.1 mph
(SE 13 kph)
- 10SM
08:55
Overcast
63°F / 17°C 50°F / 10°C 64% 29.74 in
(1007 mb)
SSE 6.9 mph
(SSE 11 kph)
- 10SM
08:35
Overcast
63°F / 17°C 50°F / 10°C 64% 29.74 in
(1007 mb)
SSE 9.2 mph
(SSE 15 kph)
- 10SM
08:15
Overcast
63°F / 17°C 50°F / 10°C 64% 29.74 in
(1007 mb)
SSE 8.1 mph
(SSE 13 kph)
- 10SM
07:55
Overcast
63°F / 17°C 50°F / 10°C 64% 29.74 in
(1007 mb)
SE 11.5 mph
(SE 19 kph)
- 10SM
07:35
Overcast
61°F / 16°C 50°F / 10°C 68% 29.74 in
(1007 mb)
E 8.1 mph
(E 13 kph)
- 10SM
07:15
Overcast
63°F / 17°C 50°F / 10°C 64% 29.74 in
(1007 mb)
SE 10.4 mph
(SE 17 kph)
- 10SM
06:55
Fair
61°F / 16°C 50°F / 10°C 68% 29.74 in
(1007 mb)
SE 6.9 mph
(SE 11 kph)
- 10SM
Time Weather Temperature Dewpoint Humidity Pressure Winds Precip Visibility


Weather for websites

WeatherForYou.com, LLC is not responsible for any damages or problems caused by this service. Current weather conditions are obtained from the closest station including government and personal stations which may have varying degrees of accuracy. Weather forecasts are derived from the NOAA NDFD. Like all things, this site belongs to Jesus Christ... He just trusts me to maintain it. If you have any questions or comments email webmaster@weatherforyou.com

Copyright © 2014, WeatherForYou.com LLC. All rights reserved.